User: anonymous   Login
Location: Unspecified
(0.0000°N, 0.0000°E)
Time: 15:46:43
(UTC+00:00)
Language:

Tandem-X - Orbit

View from above orbital plane
View from above orbital plane
View from above satellite
View from above satellite

Ground track
Ground track

The orbit data is extracted from the following two-line orbital elements,

1 36605U 10030A   21268.19092876 -.00000808  00000-0 -35297-4 0  9993
2 36605  97.4453 274.5908 0002013  69.6459 352.7700 15.19144800624597
Epoch (UTC): 25 September 2021 04:34:56
Eccentricity: 0.0002013
inclination: 97.4453°
perigee height: 507 km
apogee height: 510 km
right ascension of ascending node: 274.5908°
argument of perigee: 69.6459°
revolutions per day: 15.19144800
mean anomaly at epoch: 352.7700°
orbit number at epoch: 62459

The dashed part of the orbit path shows where the satellite is in the earth's shadow,  

DLR